Погода в Озреке

Россия / Кабардино-Балкарская Республика     43°24′08″N   44°01′10″E
темп.,
°C
ветер,
м/с
пор.,
м/с
влажн.,
%
обл.,
%
осадки,
мм/ч
давл.,
гПа
погр.,
м
29 мая, вс
вс2900:00+16зюз22840 0.0 101412
03:00+14з128327 0.0 101411
06:00+16зсз12789 0.0 101581
09:00+21с21650 0.0 1014486
12:00+25св22561 0.0 1013967
15:00+27ссв22532 0.0 10131325
18:00+24с2367100 0.0 101463
21:00+19ю348316 3.1 101642
30 мая, пн
пн3000:00+18зюз228611 0.0 101517
03:00+17ююз22830 0.0 101514
06:00+19юз11750 0.0 101660
09:00+24в11640 0.0 1016487
12:00+27в23560 0.0 10151348
15:00+29всв445056 0.0 10141817
18:00+26юв2266100 0.2 101429
21:00+21юз3377100 0.2 101437
31 мая, вт
вт3100:00+19юз228058 0.0 101414
03:00+18ююз22801 0.0 101413
06:00+20ю11741 0.0 101460
09:00+25всв22630 0.0 1013515
12:00+28св32540 0.0 10131195
15:00+29св3249100 0.0 10121268
18:00+25ссз1166100 1.1 101213
21:00+20юз3381100 3.1 101332
1 июня, ср
ср100:00+19ююз118399 0.3 101312
03:00+18юз228414 0.3 101318
06:00+20ююз117791 0.0 101458
09:00+24с226449 0.0 1014472
12:00+28ссв225410 0.0 10131161
15:00+29зсз1153100 0.0 10131413
18:00+24з347899 1.3 101479
21:00+20юз3482100 4.9 101556
2 июня, чт
чт200:00+18ю1179100 0.7 101511
03:00+17юз2280100 0.7 101413
06:00+19з117687 0.0 101556
09:00+24ссз22645 0.0 1015481
12:00+28ссв225732 0.0 10151082
15:00+29ссв21516 0.0 10141461
18:00+27св226098 0.0 101544
21:00+22ю22644 0.2 101511